Regional Weather Roundup
Issued by NWS Wakefield, VA

Home | Current Version | Previous Version | Graphics & Text | Print | Product List | Glossary On
Versions: 1 2 3 4 5 6 7 8 9 10 11 12 13 14 15 16 17 18 19 20 21 22 23 24 25 26 27 28 29 30 31 32 33 34 35 36 37 38 39 40 41 42 43 44 45 46 47 48 49 50
000
ASUS41 KAKQ 210810
RWRAKQ

REGIONAL WEATHER ROUNDUP
NATIONAL WEATHER SERVICE WAKEFIELD VA
400 AM EDT TUE OCT 21 2014

Note: "fair" indicates few or no clouds below 12,000 feet with no
significant weather and/or obstructions to visibility. * = Denotes
station may not report precipitation (e.g., rain,snow,etc.),
thunder or fog.

VAZ042-051-052>054-056-210900-
NORTHERN VIRGINIA

CITY           SKY/WX    TMP DP  RH WIND       PRES   REMARKS
WASH NATIONAL  MOCLDY    58  48  69 SW6       29.88F
DULLES         MOCLDY    49  47  93 CALM      29.87F
FORT BELVOIR   CLOUDY    51  50  97 E1        29.88F
QUANTICO       MOCLDY    56  46  69 SW5       29.89F
FREDERICKSBRG* MOCLDY    55  49  81 SW3       29.88S
STAFFORD*      MOCLDY    49  49 100 CALM      29.92S
WARRENTON      MOCLDY    47  47 100 CALM      29.87S
CULPEPER*      PTCLDY    48  46  93 N3        29.88F
MANASSAS*      MOCLDY    50  48  93 CALM      29.87F
LEESBURG*      MOCLDY    52  52 100 CALM      29.88F
WINCHESTER     FOG       46  43  87 CALM      29.87S VSB 1/4
FRONT ROYAL*   MOSUNNY   52  48  87 SW5       29.86F
LURAY*         MOSUNNY   52  52 100 CALM      29.87F
$$

VAZ048-049-060>072-079>083-210900-
CENTRAL AND SOUTH CENTRAL VIRGINIA...AND NORTH CENTRAL NORTH CAROLINA

CITY           SKY/WX    TMP DP  RH WIND       PRES   REMARKS
RICHMOND       CLOUDY    57  46  66 CALM      29.89F
CHESTERFIELD*  PTSUNNY  N/A N/A N/A CALM      29.90F
PETERSBURG*    MOCLDY    53  48  82 S3        29.90F
HANOVER        PTCLDY    56  46  69 S5        29.91F
TAPPAHANNOCK*  MOCLDY    56  46  69 CALM      29.90F
CHARLOTTSVILLE MOCLDY    53  49  86 S5        29.88F
ORANGE*        PTCLDY    50  46  87 S3        29.89F
LOUISA*        PTCLDY    52  48  87 CALM      29.87F
FARMVILLE*     MOCLDY    54  52  94 CALM      29.88F
CREWE*         PTSUNNY   54  48  79 CALM      29.90F
FORT PICKETT*  PTSUNNY   52  47  84 S6        29.90F
LUNENBURG*     PTSUNNY   51  49  94 CALM      29.90F
SOUTH HILL*    MOCLDY    54  52  94 SW3       29.96F
LAWRENCEVILLE* CLOUDY    53  50  89 CALM      29.90F
ROANOKE RAPIDS CLOUDY    54  52  94 CALM      29.92F
RALEIGH        CLOUDY    57  50  77 CALM      29.92F
$$

VAZ088>098-210900-
SOUTHEAST VIRGINIA

CITY           SKY/WX    TMP DP  RH WIND       PRES   REMARKS
NORFOLK        MOCLDY    59  54  83 SW7       29.91F
VIRGINIA BEACH MOCLDY    60  54  80 SW6       29.90F
NORFOLK NAVAL  CLOUDY    63  55  75 S3        29.92F
WEST POINT*    CLOUDY    60  53  78 S6        29.91F
NEWPORT NEWS   CLOUDY    61  55  81 SW5       29.91F
LANGLEY AFB    CLOUDY    60  59  97 W6        29.90F
FORT EUSTIS    CLOUDY    59  59 100 S5        29.89F
WILLIAMSBURG*  CLOUDY    61  55  82 CALM      29.91F
HR EXEC AP*    PTSUNNY   54  52  94 CALM      29.93F
FRANKLIN*      CLOUDY    55  55 100 CALM      29.91F
WAKEFIELD      CLOUDY    57  54  89 CALM      29.90F
$$

VAZ020-022-025-037-045-210900-
WEST CENTRAL AND SOUTHWEST VIRGINIA

CITY           SKY/WX    TMP DP  RH WIND       PRES   REMARKS
STAUNTON*      PTCLDY    49  44  81 CALM      29.91S
HOT SPRINGS VA CLOUDY    47  44  90 W12       29.90F
LYNCHBURG      PTCLDY    50  49  96 CALM      29.92F
DANVILLE       PTCLDY    51  48  89 SW3       29.92F
SOUTH BOSTON*  NOT AVBL
MARTINSVILLE   PTCLDY    47  47 100 CALM      29.95F
ROANOKE        PTCLDY    53  45  74 W8        29.93F
BLACKSBURG     CLEAR     46  46 100 CALM      29.96F
DUBLIN*        CLEAR     50  48  93 SW5       29.96S
MARION*        CLOUDY    51  49  90 SW8       29.98F
HILLSVILLE*    PTCLDY    52  46  79 W3        29.96F
RICHLANDS*     CLOUDY    54  48  81 W7        29.97F
WISE*          RAIN      50  50 100 SW6       29.98F
ABINGDON*      PTCLDY    50  50  98 NW3       29.98F
$$

MDZ021>025-VAZ099-100-210900-
SOUTHERN MARYLAND AND THE DELMARVA PENINSULA

CITY           SKY/WX    TMP DP  RH WIND       PRES   REMARKS
PATUXENT RIVER CLOUDY    60  48  64 SW7       29.88F
BAY BRIDGE APT   N/A     59  50  72 S5        29.88F
LEONARDTOWN    CLOUDY    57  46  67 SW5       29.90F
DOVER          CLOUDY    55  50  83 S5        29.88F
GEORGETOWN     CLOUDY    54  48  80 CALM      29.91F
EASTON         DRIZZLE   57  54  89 SE6       29.92F
CAMBRIDGE      CLOUDY    55  52  88 CALM      29.89F
SALISBURY      CLOUDY    58  51  78 CALM      29.90F
OCEAN CITY     CLOUDY    53  50  89 CALM      29.90F
WALLOPS ISLAND CLOUDY    60  56  86 SW6       29.91F
ACCOMACK*      CLOUDY    59  54  82 SW5       29.91F
$$

NCZ012>017-030>032-210900-
EASTERN NORTH CAROLINA

CITY           SKY/WX    TMP DP  RH WIND       PRES   REMARKS
ELIZABETH CITY PTCLDY    55  54  96 SW3       29.93F
AHOSKIE*       CLOUDY    55  54  95 CALM      29.92F
EDENTON*       PTCLDY    55  54  97 CALM      29.92F
CURRITUCK*     PTCLDY    55  54  94 CALM      29.93F
KILL DEVIL HLS DRIZZLE   64  61  92 CALM      29.92F
MANTEO         CLOUDY    64  61  91 S8        29.93F
CAPE HATTERAS  LGT RAIN  65  63  93 CALM      29.93F
TARBORO*       CLOUDY    59  56  90 SW3       29.92F
GOLDSBORO      CLOUDY    57  56  98 CALM      29.91F
WASHINGTON     PTCLDY    52  51  97 CALM      29.93F
GREENVILLE     CLOUDY    55  54  94 CALM      29.94F
NEW BERN       CLEAR     55  52  89 CALM      29.94F
WILMINGTON     CLEAR     55  54  96 CALM      29.93F
$$

VAZ048-210900-
ELSEWHERE

CITY           SKY/WX    TMP DP  RH WIND       PRES   REMARKS
HARRISBURG PA  CLOUDY    52  51  97 NE3       29.85F
BALTIMORE      MOCLDY    53  49  86 CALM      29.87F
ANNAPOLIS      MOCLDY    56  48  74 CALM      29.87F
ANDREWS AFB    MOCLDY    55  48  77 S6        29.87F
WILMINGTON DE  CLOUDY    54  46  74 CALM      29.90F
PHILADELPHIA   CLOUDY    54  47  77 CALM      29.90F
WILDWOOD NJ*   MOCLDY    52  45  76 CALM      29.91F
ATLANTIC CITY  CLOUDY    49  46  90 CALM      29.91F
HENDERSON NC   CLOUDY    52  48  86 SW5       29.92F
GREENSBORO     PTCLDY    55  50  83 W5        29.93F
ROCKY MOUNT    CLOUDY    57  55  93 S3        29.92F
FAYETTEVILLE   MOCLDY    58  56  93 W5        29.93F
CHARLOTTE      CLEAR     53  49  86 W3        29.95F
$$

VAZ100-210900-
MARINE

STATION/POSITION TIME  TEMP    WIND        PRES    WAVE   SWELL
                       AIR SEA DIR/SP/G            HT/PER HT/PER
                 (UTC) (F)     (DEG/KT/KT) (MB)    (FT/S) (FT/S)
44066 TX TWR #4  0800   65 66  230/ 10/ 12 1013.1F   5/ 6   3/ 6
CAPE MAY NJ      0800   61 66  210/  5/  9 1012.1F
LEWES DE         0800   57 62  230/  3/  5 1012.4S
15NM E FENWICK I 0800   65 66  240/ 14/ 16 1012.5F   3/ 6   2/12
OCEAN-CITY-INLET 0800   60 62  250/  3/  4 1012.6S
WACHAPREAGUE VA  0800   60 61  240/  2/  3 1012.9S
THOMAS POINT MD  0800   61 64  210/ 15/ 17 1012.5F
GOOSES REEF MD   0800   63     230/ 12/ 16 1012.3S
COVE POINT MD    0800   60     220/ 10/ 11 1012.0R
SOLOMONS ISLAND  0800      65                N/A
BISHOPS HEAD MD  0800   62 58  210/  7/  8 1011.9S
PINEY POINT MD   0800          220/ 10/ 11   N/A
POTOMAC MD       0800   62     210/  8/ 10 1011.7S
CAMBRIDGE MD     0800   58 63  140/  3/  5 1011.8F
LEWISETTA VA     0800   60 62  220/  7/  8 1011.7F
RAPPAHANNOCK LGT 0800          220/ 13/ 14 1013.0F
STINGRAY PT      0800   63     230/ 12/ 14 1013.3F
YORK RVR RNG VA  0800   62     270/  9/ 10 1012.3S
YORKTOWN VA      0800   60 67  230/  6/  8 1012.4F
JAMESTOWN VA     0800   59     250/  8/ 10   N/A
DOMINION TERM VA 0800   61     250/  9/ 10 1012.8F
KIPTOPEKE VA     0800      69  240/ 10/ 12   N/A
CHES BAY BRIDGE  0800   62 67  200/ 10/ 12 1012.3F
CHESAPEAKE LGHT  0700   66     230/ 17/ 18 1013.9F
WILLOUBY STN VA  0800   62     260/ 12/ 13 1011.3F
S CRANEY ISL VA  0800          200/  6/  7 1012.5F
CAPE HENRY BUOY  0800      68                N/A     3/10   2/13
1ST LANDING BUOY 0800   63     220/ 12/ 14 1012.7F
CAPE CHARLES BUO 0800      68                N/A     2/12   2/12
64NM E OF VA BCH 0800   69 69  280/  8/ 10 1012.6F   3/ 5   3/ 5
DUCK PIER NC     0800   64 69  220/  3/  4 1012.6S
44100 DUCK FRF   0800      71                N/A     2/10   2/11
44056 DUCK FRF   0800                        N/A     2/11   2/11
OREGON INLET NC  0800   65 67  160/ 10/ 13 1013.3F
HATTERAS NC      0800   65 71   10/  3/  4 1013.7F
DIAMOND SHLS NC  0800   67     300/ 12/ 14 1013.5F   4/ 4   2/ 8
CAPE LOOKOUT NC  0700   69     200/  3/  3 1013.4F
$$



USA.gov is the U.S. government's official web portal to all federal, state and local government web resources and services.